Tegucigalpa, Honduras

2:47 AM CST en Enero 24, 2019 (GMT -0600)
Toncontin International

Tiempo Historia de MHTG - Enero, 2019

Change the Weather History Date:

Viernes, Enero 11, 2019

  Actual Average Record
Temperature  
Temperatura media 64 ° F -  
Temperatura máxima 70 ° F 77 ° F 84 ° F (1998)
Temperatura mínima 58 ° F 57 ° F 48 ° F (2002)
Degree Days  
Grados día de calefacción 1    
Growing Degree Days 14 (Base 50)    
Moisture  
Punto de rocío 56 ° F    
Average Humidity 76    
Maximum Humidity 94    
Minimum Humidity 53    
Precipitación  
Precipitación 0.00 pul 0.01 pul - ()
Presión al nivel del mar  
Presión al nivel del mar 30.12 pul    
Viento  
Velocidad del viento 9 mph ()    
Velocidad máxima del viento 23 mph    
Max Gust Speed -    
Visibilidad 6.1 Millas    
Eventos      
Averages and records for this station are not official NWS values.
T = Trace of Precipitation, MM = Missing Value Source: Averaged Metar Reports

Daily Weather History Graph

Daily Weather History Graph

Search for Another Location

Airport or City:

Astronomía

Jan. 11, 2019 Salida Puesta
Hora real 6:15 AM CST 5:37 PM CST
Crepúsculo civil 5:53 AM CST 6:00 PM CST
Crepúsculo náutico 5:26 AM CST 6:27 PM CST
Crepúsculo astronómico 5:00 AM CST 6:53 PM CST
Luna 10:09 AM CST (1/11) 10:17 PM CST (1/11)
Horas de luz 12h 07m
Horas de luz
11h 21m
Creciente, 26% of the Moon is Illuminated
Ene 11
Creciente
Ene 14
Cuarto creciente
Ene 20
Luna llena
Ene 27
Cuarto menguante
Feb 4
Nueva

Hourly Weather History & Observations

Hora (CST) Temp. Punto de rocío Humedad Presión Visibilidad Wind Dir Velocidad del viento Velocidad de ráfagas Precip Eventos Condiciones
12:00 AM 59 ° F 51 ° F 66% 30.16 pul 6 mi NNE 6.9 mph - -   Muy nublado
12:00 AM 59.0 ° F 50.0 ° F 72% 30.18 pul 6.2 mi NNE 6.9 mph - N/A   Muy nublado
1:00 AM 59.0 ° F 51.8 ° F 77% 30.18 pul 6.2 mi Norte 6.9 mph - N/A   Muy nublado
2:00 AM 59.0 ° F 51.8 ° F 77% 30.15 pul 6.2 mi NNO 6.9 mph - N/A   Nubes dispersas
3:00 AM 60 ° F 53 ° F 69% 30.10 pul 6 mi Norte 6.9 mph - -   Bruma
3:00 AM 59.0 ° F 51.8 ° F 77% 30.15 pul 6.2 mi Norte 6.9 mph - N/A   Nubes dispersas
4:00 AM 59.0 ° F 53.6 ° F 82% 30.12 pul 6.2 mi Norte 11.5 mph - N/A   Parcialmente nublado
5:00 AM 59.0 ° F 53.6 ° F 82% 30.12 pul 6.2 mi Norte 13.8 mph - N/A   Parcialmente nublado
6:00 AM 59 ° F 53 ° F 76% 30.11 pul 6 mi Norte 9.2 mph - -   Bruma
6:00 AM 59.0 ° F 53.6 ° F 82% 30.12 pul 6.2 mi Norte 9.2 mph - N/A   Muy nublado
7:00 AM 59.0 ° F 53.6 ° F 82% 30.15 pul 6.2 mi Norte 13.8 mph - N/A   Muy nublado
9:00 AM 63 ° F 56 ° F 71% 30.12 pul 6 mi Norte 9.2 mph - -   Bruma
9:00 AM 62.6 ° F 55.4 ° F 77% 30.18 pul 6.2 mi Norte 9.2 mph - N/A   Muy nublado
10:00 AM 66.2 ° F 57.2 ° F 73% 30.18 pul 6.2 mi Norte 11.5 mph - N/A   Muy nublado
11:00 AM 69.8 ° F 57.2 ° F 64% 30.15 pul 6.2 mi Norte 23.0 mph - N/A   Muy nublado
12:00 PM 70 ° F 57 ° F 53% 30.02 pul 6 mi Norte 16.1 mph - -   Bruma
12:00 PM 69.8 ° F 57.2 ° F 64% 30.12 pul 6.2 mi Norte 16.1 mph - N/A   Muy nublado
1:00 PM 68.0 ° F 57.2 ° F 68% 30.09 pul 5.0 mi Norte 16.1 mph - N/A   Muy nublado
2:00 PM 68.0 ° F 57.2 ° F 68% 30.09 pul 5.0 mi Norte 11.5 mph - N/A   Muy nublado
3:00 PM 67 ° F 59 ° F 68% 29.99 pul 6 mi Norte 11.5 mph - -   Muy nublado
3:00 PM 68.0 ° F 59.0 ° F 73% 30.09 pul 6.2 mi Norte 11.5 mph - N/A   Muy nublado
4:00 PM 66.2 ° F 59.0 ° F 78% 30.09 pul 6.2 mi Norte 11.5 mph - N/A   Nubes dispersas
5:00 PM 66.2 ° F 57.2 ° F 73% 30.09 pul 6.2 mi NNE 9.2 mph - N/A   Nubes dispersas
6:00 PM 64 ° F 57 ° F 71% 30.03 pul 6 mi Norte 11.5 mph - -   Bruma
6:00 PM 64.4 ° F 57.2 ° F 77% 30.09 pul 6.2 mi Norte 11.5 mph - N/A   Nubes dispersas
7:00 PM 62.6 ° F 57.2 ° F 82% 30.12 pul 6.2 mi Norte 9.2 mph - N/A   Nubes dispersas
8:00 PM 62.6 ° F 59.0 ° F 88% 30.12 pul 6.2 mi Norte 6.9 mph - N/A   Muy nublado
9:00 PM 62 ° F 58 ° F 84% 30.10 pul 6 mi NNE 4.6 mph - -   Bruma
9:00 PM 62.6 ° F 59.0 ° F 88% 30.15 pul 6.2 mi NNE 4.6 mph - N/A   Muy nublado
10:00 PM 62.6 ° F 59.0 ° F 88% 30.15 pul 6.2 mi Norte 6.9 mph - N/A   Muy nublado
11:00 PM 60.8 ° F 59.0 ° F 94% 30.15 pul 6.2 mi NNE 9.2 mph - N/A   Muy nublado